Portada
METAR-TAF:

METAR-TAF

Aeroports :

Kharg, Iran

latitud: 29-15-34N, longitud: 50-19-24E, altitud: 5 m

Observació

L'informe es va fer fa 26 minuts, a les 08:00 UTC
Vent 4 kt del Nord-Est
Temperatura 26°C
Humitat 65%
Pressió 1016 hPa
Visibilitat 10 km o més
sense núvols per sota de 1500 mi sense presència de cumulonimbus.

METAR: OIBQ 120800Z 04004KT CAVOK 26/19 Q1016

Hora: 11:56 (08:26 UTC)


TAF: manca

Observacions i pronòstics meteorològics de més de 4000 aeroports (METAR i TAF).

Les estacions disponibles són els punts grocs i vermells al mapa.

Posi el ratolí al punt desitjat per veure el nom de l'estació.

Feu clic per veure les observacions i els pronòstics meteorològics.

Per canviar el mapa: feu clic els botons verds amb una creu de color negre per apropar; al botó verd amb un guió per allunyar la imatge; o en les fletxes verdes per a mapes adjacents.


METAR-TAF: